Location: Saluda
(35.2377°N, 82.3468°W)
Time: 18:08:32
(UTC+00:00)

Transit 2A - Pass Details

Date: 06 October 2022
Orbit: 598 x 959 km, 66.7° (Epoch: 06 December)

Event Time Altitude Azimuth Distance (km) Brightness Sun altitude
Rises 02:07:38 0° 167° (SSE) 2,975 - -36.9°
Reaches altitude 10° 02:10:44 10° 146° (SE) 2,013 - -37.5°
Maximum altitude 02:13:29 16° 108° (ESE) 1,614 - -38.0°
Drops below altitude 10° 02:16:11 10° 69° (ENE) 1,955 - -38.5°
Sets 02:19:06 0° 48° (NE) 2,846 - -39.0°
